Date,TemperatureHighF,TemperatureAvgF,TemperatureLowF,DewpointHighF,DewpointAvgF,DewpointLowF,HumidityHigh,HumidityAvg,HumidityLow,PressureMaxIn,PressureMinIn,WindSpeedMaxMPH,WindSpeedAvgMPH,GustSpeedMaxMPH,PrecipitationSumIn
2013-1-1,36,31,22,31,25,10,92,78,57,30.00,29.81,0,-10,0,0.00
2013-1-2,28,22,12,18,14,7,85,71,58,30.16,29.98,0,-14,0,0.00
2013-1-3,29,20,11,18,11,2,84,68,58,30.20,30.05,0,-4,0,0.00
2013-1-4,37,29,17,27,22,13,88,76,67,30.06,29.91,0,-7,0,0.00
2013-1-5,41,32,23,28,24,18,88,72,54,30.29,29.95,0,-4,0,0.00
2013-1-6,41,33,26,34,29,22,95,87,76,30.24,29.97,0,0,0,0.00
2013-1-7,41,34,25,31,27,22,94,76,57,30.41,30.02,0,-10,0,0.00
2013-1-10,46,40,30,29,26,25,83,60,47,30.56,30.39,0,0,0,0.00
2013-1-11,43,34,26,43,31,23,98,88,73,30.55,30.15,0,-4,0,0.00
2013-1-12,45,42,37,44,42,37,99,98,97,30.18,30.09,0,0,0,0.00
2013-1-13,46,43,40,46,42,40,99,99,99,30.18,30.02,0,-4,0,0.00
2013-1-14,55,46,35,54,43,29,100,87,56,30.29,29.92,0,-7,0,0.00
2013-1-15,38,35,33,32,31,28,96,83,71,30.35,30.22,0,-7,0,0.00
2013-1-16,35,32,31,33,31,28,98,96,77,30.25,29.80,0,-14,0,0.00
2013-1-17,42,35,30,34,30,20,98,83,64,30.11,29.90,0,-4,0,0.00
2013-1-18,30,24,16,20,12,5,83,60,40,30.50,30.03,0,-4,0,0.00
2013-1-19,43,38,26,36,30,16,85,72,62,30.43,29.93,0,-8,0,0.00
2013-1-20,52,42,29,37,29,14,82,61,37,30.00,29.65,0,-4,0,0.00
2013-1-21,29,26,20,26,17,10,94,70,50,30.12,29.81,0,-7,0,0.00
2013-1-22,25,19,12,23,7,-3,93,59,40,30.16,29.80,0,0,0,0.00
2013-1-23,19,12,6,2,-1,-4,70,54,40,30.23,30.14,0,-4,0,0.00
2013-1-24,22,13,1,4,-1,-4,82,56,36,30.34,30.15,0,-7,0,0.00
2013-1-25,24,17,9,16,5,1,88,61,37,30.40,30.07,0,-7,0,0.00
2013-1-26,27,18,11,14,9,3,91,68,46,30.35,30.04,0,-10,0,0.00
2013-1-27,35,22,11,13,6,1,77,53,27,30.51,30.34,0,-10,0,0.00
2013-1-28,33,26,16,32,22,6,97,84,57,30.50,30.00,0,0,0,0.00
2013-1-29,40,34,30,37,33,29,98,94,85,30.20,30.00,0,-7,0,0.00
2013-1-30,55,48,37,54,48,36,99,98,96,30.14,29.46,0,-4,0,0.00
2013-1-31,58,46,30,56,35,14,97,68,41,29.72,29.07,0,0,0,0.00
2013-2-1,32,27,20,19,13,8,77,56,43,30.18,29.71,0,0,0,0.00
2013-2-2,31,24,14,20,13,8,87,63,46,30.30,30.08,0,-10,0,0.00
2013-2-3,33,25,17,23,18,15,94,76,55,30.09,29.78,0,-4,0,0.00
2013-2-4,32,26,19,19,13,7,86,60,39,29.99,29.79,0,-7,0,0.00
2013-2-5,28,25,21,24,20,10,91,82,63,30.02,29.93,0,0,0,0.00
2013-2-6,39,31,26,29,22,4,94,70,37,30.35,29.92,0,-4,0,0.00
2013-2-7,33,26,21,18,10,3,70,50,36,30.53,30.35,0,-4,0,0.00
2013-2-8,32,29,22,32,26,17,97,89,65,30.40,29.51,0,-10,0,29.95
2013-2-9,28,23,18,23,18,7,96,82,60,30.28,29.63,0,-10,0,46.55
2013-2-10,38,23,12,22,10,1,87,59,32,30.45,30.28,0,-14,0,29.61
2013-2-11,44,34,18,44,33,14,99,95,84,30.37,29.67,0,-7,0,29.56
2013-2-12,46,39,30,40,31,24,99,76,52,29.95,29.69,0,0,0,68.28
2013-2-13,45,35,25,29,26,22,90,71,47,29.94,29.69,0,-10,0,69.72
2013-2-14,46,34,28,30,27,24,94,75,44,30.02,29.72,0,-4,0,28.68
2013-2-15,50,36,24,39,32,24,98,86,65,30.04,29.93,0,-7,0,29.45
2013-2-16,37,34,28,34,27,21,98,78,57,29.96,29.70,0,-10,0,29.70
2013-2-17,29,24,17,24,9,2,84,52,33,29.88,29.56,0,-4,0,66.40
2013-2-18,35,23,15,14,7,3,66,50,31,30.23,29.88,0,-4,0,66.76
2013-2-19,46,34,18,42,29,13,98,83,64,30.23,29.64,0,-10,0,29.85
2013-2-20,38,31,24,37,19,11,96,60,45,29.92,29.64,0,-7,0,39.13
2013-2-21,35,26,22,19,15,12,71,61,48,30.27,29.91,0,-10,0,0.00
2013-2-22,41,31,23,29,23,15,85,72,50,30.41,30.26,0,-4,0,0.00
2013-2-23,38,36,34,36,33,28,97,90,79,30.31,29.83,0,-10,0,15.52
2013-2-24,41,36,32,37,34,29,97,91,78,29.93,29.71,0,-4,0,29.26
2013-2-25,48,37,29,32,29,25,90,73,51,30.26,29.93,0,0,0,29.46
2013-2-26,42,35,28,33,30,26,95,83,59,30.33,30.03,0,0,0,68.92
2013-2-27,44,40,34,43,39,32,98,97,94,30.03,29.55,0,-7,0,69.36
2013-2-28,48,39,34,45,37,33,99,95,74,29.64,29.53,0,-7,0,68.72
2013-3-1,49,39,33,37,32,28,95,78,52,29.74,29.57,0,0,0,67.32
2013-3-2,39,35,32,30,28,26,82,73,62,29.75,29.67,0,-4,0,68.88
2013-3-3,37,32,29,27,24,21,81,74,60,29.71,29.63,0,-7,0,68.72
2013-3-4,43,33,27,27,23,20,77,66,49,29.84,29.69,0,-7,0,252.96
2013-3-5,49,38,30,32,27,22,83,65,48,30.04,29.83,0,0,0,68.32
2013-3-6,42,38,32,37,33,29,88,82,69,30.03,29.91,0,-4,0,54.36
2013-3-7,37,34,31,33,31,30,96,91,80,30.03,29.90,0,0,0,69.56
2013-3-8,39,34,31,33,31,28,98,90,67,30.15,29.95,0,-4,0,69.60
2013-3-9,53,40,28,30,26,20,92,60,30,30.35,30.14,0,0,0,69.80
2013-3-10,46,36,24,36,31,23,97,84,66,30.41,30.33,0,-4,0,19.56
2013-3-11,51,42,35,45,39,33,97,89,76,30.35,30.14,0,-4,0,55.84
2013-3-12,51,48,41,51,47,40,99,96,91,30.14,29.71,0,-4,0,54.52
2013-3-13,52,43,36,40,30,24,91,62,37,29.86,29.76,0,-11,0,54.84
2013-3-14,39,33,30,29,19,12,85,57,40,29.91,29.81,0,0,0,55.84
2013-3-15,42,34,26,31,20,12,74,56,41,29.95,29.72,0,0,0,56.28
2013-3-16,40,34,29,30,24,16,93,70,39,29.91,29.75,0,-7,0,55.00
2013-3-17,38,32,26,30,16,7,92,56,29,30.33,29.91,0,-7,0,54.68
2013-3-18,35,29,21,29,15,4,95,56,32,30.45,30.12,0,-4,0,56.08
2013-3-19,40,34,30,38,33,29,97,94,90,30.12,29.64,0,-4,0,55.44
2013-3-20,44,35,28,32,23,18,91,65,39,29.86,29.75,0,-4,0,54.96
2013-3-21,36,31,27,29,26,18,95,80,60,29.85,29.64,0,-7,0,54.56
2013-3-22,42,33,24,24,20,14,73,58,42,29.83,29.69,0,-10,0,29.72
2013-3-23,47,37,28,27,22,17,80,56,31,29.90,29.73,0,-4,0,53.64
2013-3-24,48,38,28,32,24,19,82,58,42,29.92,29.72,0,-4,0,29.46
2013-3-25,44,38,32,32,29,27,89,70,52,29.77,29.45,0,-7,0,29.41
2013-3-26,52,41,30,33,27,21,77,60,35,29.84,29.55,0,-11,0,28.63
2013-3-27,53,42,26,31,25,21,85,55,31,29.92,29.81,0,0,0,29.32
2013-3-28,51,44,36,38,32,28,80,65,48,30.07,29.91,0,-4,0,21.94
2013-3-29,58,48,38,36,32,28,73,56,37,30.11,30.01,0,0,0,2.97
2013-3-30,59,46,33,34,29,21,84,55,25,30.14,30.04,0,-7,0,0.00
2013-3-31,55,42,27,44,34,24,96,75,44,30.14,29.66,0,-4,0,29.84
2013-4-1,60,46,35,49,41,18,98,81,48,29.87,29.58,0,0,0,58.16
2013-4-2,43,36,26,22,16,10,81,48,27,30.04,29.86,0,0,0,54.28
2013-4-3,47,37,28,20,16,11,64,43,26,30.26,30.04,0,-4,0,54.48
2013-4-4,50,38,28,34,23,15,83,56,33,30.39,30.12,0,0,0,54.32
2013-4-5,60,46,38,38,31,21,85,59,26,30.12,29.68,0,0,0,29.07
2013-4-6,50,40,31,25,19,9,77,45,21,30.34,29.95,0,-4,0,0.00
2013-4-7,55,41,26,42,34,23,93,77,56,30.34,30.05,0,0,0,0.00
2013-4-8,67,53,39,48,43,38,98,72,43,30.08,29.99,0,-4,0,28.91
2013-4-9,81,62,47,56,47,42,97,63,30,30.06,29.89,0,0,0,29.52
2013-4-10,71,55,48,57,49,44,97,82,55,30.02,29.84,0,0,0,29.95
2013-4-11,63,50,45,51,46,37,98,84,59,30.10,29.80,0,0,0,54.60
2013-4-12,45,42,39,40,35,25,96,79,48,30.10,29.74,0,-7,0,0.00
2013-4-13,55,44,36,42,38,34,96,79,50,29.96,29.74,0,0,0,0.00
2013-4-14,56,48,39,42,34,27,94,62,36,30.23,29.96,0,0,0,0.00
2013-4-15,55,45,36,37,33,27,89,63,45,30.41,30.22,0,-4,0,0.00
2013-4-16,61,49,35,52,44,33,98,84,67,30.41,30.14,0,-7,0,0.00
2013-4-17,70,59,48,52,42,32,92,58,28,30.32,30.12,0,0,0,0.00
2013-4-18,59,50,38,48,40,34,93,71,41,30.39,30.15,0,-4,0,0.00
2013-4-19,70,58,51,63,57,48,99,94,77,30.16,29.70,0,0,0,0.00
2013-4-20,59,53,44,59,40,26,98,67,35,30.27,29.66,0,0,0,0.00
2013-4-21,56,44,34,34,26,20,80,52,28,30.66,30.26,0,-4,0,0.00
2013-4-22,54,44,32,38,33,26,92,69,39,30.71,30.54,0,-7,0,0.00
2013-4-23,46,42,38,42,37,32,91,84,72,30.54,30.07,0,-4,0,0.00
2013-4-24,67,51,42,50,44,39,96,79,50,30.07,29.89,0,0,0,0.00
2013-4-25,65,54,41,50,37,27,96,58,24,30.28,29.89,0,0,0,0.00
2013-4-26,64,50,33,43,35,30,89,59,31,30.40,30.28,0,-4,0,0.00
2013-4-27,65,51,35,45,38,31,87,63,37,30.42,30.32,0,0,0,0.00
2013-4-28,64,51,37,46,40,35,98,70,38,30.35,30.24,0,0,0,0.00
2013-4-29,59,52,46,49,43,38,93,72,48,30.28,30.23,0,-7,0,0.00
2013-4-30,64,54,41,44,36,23,88,56,23,30.36,30.25,0,-4,0,0.00
2013-5-1,66,52,35,50,41,30,91,68,33,30.50,30.35,0,0,0,0.00
2013-5-2,70,56,37,48,42,36,98,65,33,30.48,30.33,0,0,0,0.00
2013-5-3,66,54,43,48,42,36,93,66,41,30.49,30.37,0,0,0,0.00
2013-5-4,65,51,39,49,43,37,98,76,47,30.38,30.27,0,-4,0,0.00
2013-5-5,60,48,35,46,40,34,96,78,53,30.31,30.25,0,-4,0,0.00
2013-5-6,67,54,38,51,46,37,98,77,56,30.29,30.17,0,-4,0,0.00
2013-5-7,71,59,41,61,52,40,99,80,53,30.19,30.12,0,-4,0,0.00
2013-5-8,66,59,54,63,57,53,99,95,87,30.15,30.03,0,-4,0,0.00
2013-5-9,63,56,51,60,56,51,99,98,88,30.04,29.88,0,0,0,0.00
2013-5-10,78,63,48,65,55,48,100,80,42,29.99,29.92,0,0,0,0.00
2013-5-11,65,59,55,62,58,54,99,96,91,29.93,29.70,0,-4,0,0.00
2013-5-12,69,60,51,60,49,28,100,72,29,29.88,29.62,0,0,0,0.00
2013-5-13,58,50,40,38,32,27,73,52,36,30.08,29.88,0,0,0,0.00
2013-5-14,60,48,35,39,35,28,90,62,32,30.10,30.01,0,0,0,0.00
2013-5-15,63,50,33,56,45,32,98,83,49,30.10,29.71,0,-4,0,0.00
2013-5-16,79,62,44,58,50,43,99,69,34,29.81,29.70,0,0,0,0.00
2013-5-17,73,59,46,50,45,41,93,63,33,30.22,29.81,0,0,0,0.00
2013-5-18,71,57,43,55,48,42,98,76,43,30.32,30.21,0,0,0,0.00
2013-5-19,60,54,47,55,52,46,99,94,83,30.37,30.21,0,0,0,0.00
2013-5-20,78,64,56,70,61,55,100,92,70,30.21,29.96,0,0,0,0.00
2013-5-21,85,70,58,74,65,58,100,87,64,29.99,29.84,0,0,0,0.00
2013-5-22,73,62,54,68,60,52,98,92,80,29.95,29.87,0,0,0,0.00
2013-5-23,75,65,60,70,64,59,99,95,82,29.93,29.79,0,-4,0,0.00
2013-5-24,72,59,46,68,57,45,100,94,79,29.85,29.66,0,0,0,0.00
2013-5-25,49,46,44,47,44,41,97,94,87,29.90,29.80,0,-4,0,0.00
2013-5-26,62,52,43,45,42,40,92,69,47,30.17,29.86,0,-4,0,0.00
2013-5-27,72,56,35,50,43,34,99,67,31,30.22,30.12,0,-7,0,0.00
2013-5-28,73,57,42,57,50,41,98,83,45,30.24,30.16,0,0,0,0.00
2013-5-29,74,63,56,68,61,55,99,93,79,30.17,30.01,0,0,0,0.00
2013-5-30,89,75,59,76,66,58,99,78,50,30.11,30.03,0,0,0,0.00
2013-5-31,92,76,61,76,67,60,98,76,46,30.11,29.99,0,0,0,0.00
2013-6-1,88,74,58,74,66,57,99,80,58,30.01,29.91,0,0,0,0.00
2013-6-2,84,72,62,74,66,61,98,83,64,29.93,29.78,0,0,0,0.00
2013-6-3,78,68,64,71,65,57,99,92,75,29.86,29.79,0,0,0,0.00
2013-6-4,75,63,51,57,48,41,91,59,38,30.10,29.85,0,0,0,0.00
2013-6-5,74,63,50,56,50,46,93,66,42,30.21,30.09,0,-4,0,0.00
2013-6-6,72,60,49,62,55,48,99,84,57,30.18,30.05,0,-7,0,0.00
2013-6-7,60,58,56,59,57,54,99,98,96,30.05,29.70,0,-4,0,2.48
2013-6-8,76,64,52,68,60,52,99,88,70,30.03,29.57,0,0,0,12.00
2013-6-9,79,68,55,65,60,54,99,78,54,30.18,30.03,0,0,0,0.00
2013-6-10,73,62,56,65,60,55,99,92,68,30.18,29.91,0,0,0,0.00
2013-6-11,80,66,59,72,64,58,100,94,70,29.92,29.57,0,0,0,27.40
2013-6-12,74,65,55,61,56,53,96,73,51,29.84,29.64,0,0,0,29.75
2013-6-13,59,55,50,58,54,49,98,96,91,29.83,29.54,0,-4,0,14.71
2013-6-14,74,59,51,61,55,50,98,87,49,29.84,29.54,0,0,0,29.99
2013-6-15,80,67,54,61,56,48,99,70,35,29.97,29.84,0,-4,0,12.94
2013-6-16,79,65,50,68,60,50,99,85,54,29.98,29.75,0,-4,0,2.99
2013-6-17,85,70,57,71,64,56,99,83,56,29.92,29.82,0,-4,0,11.77
2013-6-18,82,68,58,73,64,57,100,90,66,29.91,29.82,0,0,0,28.70
2013-6-19,77,65,54,61,55,49,98,75,40,30.15,29.88,0,-4,0,53.91
2013-6-20,79,65,48,63,55,47,98,73,47,30.28,30.15,0,-10,0,0.00
2013-6-21,82,67,52,66,59,52,99,77,52,30.29,30.23,0,0,0,0.00
2013-6-22,82,68,54,68,60,53,98,77,50,30.26,30.15,0,0,0,0.00
2013-6-23,86,72,58,74,66,57,98,82,58,30.19,30.07,0,-4,0,0.37
2013-6-24,91,78,68,79,71,64,98,80,57,30.07,29.91,0,-4,0,0.22
2013-6-25,90,77,65,78,70,64,98,80,56,29.99,29.76,0,0,0,29.39
2013-6-26,84,76,70,74,71,68,97,84,67,29.83,29.74,0,-4,0,29.63
2013-6-27,80,72,67,75,69,66,99,93,79,29.82,29.63,0,0,0,33.95
2013-6-28,84,75,68,77,72,67,100,91,74,29.63,29.49,0,0,0,29.32
2013-6-29,81,74,67,74,70,67,99,89,72,29.73,29.49,0,-4,0,29.70
2013-6-30,79,72,68,74,70,67,99,95,85,29.94,29.72,0,0,0,52.44
2013-7-1,80,73,71,77,72,70,99,98,88,30.08,29.93,0,0,0,55.64
2013-7-2,82,74,71,77,73,70,99,94,80,30.18,30.08,0,0,0,29.03
2013-7-3,86,76,69,78,72,69,99,90,71,30.25,30.17,0,0,0,71.81
2013-7-4,88,78,70,79,74,70,99,87,66,30.24,30.15,0,0,0,29.31
2013-7-5,91,80,71,80,74,70,98,83,57,30.20,30.08,0,0,0,31.59
2013-7-6,94,83,72,81,75,70,96,79,53,30.11,30.00,0,0,0,28.86
2013-7-7,94,83,72,81,75,70,98,80,55,30.04,29.89,0,0,0,0.81
2013-7-8,89,80,70,77,72,67,95,78,54,30.02,29.93,0,0,0,0.18
2013-7-9,89,76,68,76,72,67,98,88,62,30.07,30.00,0,0,0,29.72
2013-7-10,88,78,71,80,74,70,99,88,71,30.02,29.80,0,0,0,51.45
2013-7-11,81,75,70,78,73,67,99,94,85,29.91,29.79,0,0,0,29.71
2013-7-12,81,72,68,71,67,62,94,83,70,30.14,29.90,0,0,0,37.61
2013-7-13,78,72,67,75,70,62,98,94,82,30.30,30.14,0,0,0,32.15
2013-7-14,88,80,72,79,75,72,100,86,67,30.31,30.21,0,0,0,46.14
2013-7-15,93,81,71,80,74,70,100,83,51,30.24,30.11,0,0,0,42.42
2013-7-16,95,82,71,78,73,68,96,75,47,30.17,30.10,0,0,0,0.00
2013-7-17,95,83,71,81,74,69,93,77,54,30.18,30.05,0,0,0,0.00
2013-7-18,98,84,72,82,75,70,96,78,51,30.05,29.94,0,0,0,0.00
2013-7-19,95,83,73,82,77,72,98,82,58,29.95,29.76,0,0,0,0.00
2013-7-20,92,82,74,78,75,68,95,80,58,29.83,29.68,0,-4,0,0.14
2013-7-21,87,76,68,72,68,65,94,77,49,29.97,29.82,0,0,0,23.02
2013-7-22,81,73,67,75,70,66,98,92,79,29.97,29.83,0,0,0,56.83
2013-7-23,87,76,70,79,73,69,100,92,66,29.83,29.55,0,0,0,43.05
2013-7-24,84,75,67,76,70,59,100,83,66,29.91,29.59,0,0,0,52.35
2013-7-25,67,60,57,60,56,50,97,87,69,30.06,29.90,0,0,0,29.91
2013-7-26,73,64,59,70,63,58,98,95,85,30.05,29.96,0,0,0,56.19
2013-7-27,83,71,60,74,66,59,100,85,54,30.06,29.98,0,0,0,29.36
2013-7-28,82,72,64,72,67,63,99,87,63,30.00,29.95,0,-4,0,0.06
2013-7-29,86,75,64,75,70,61,99,84,63,30.06,29.96,0,0,0,14.78
2013-7-30,82,71,61,65,60,56,93,70,45,30.14,30.06,0,0,0,0.93
2013-7-31,81,70,57,68,62,56,98,78,51,30.14,30.04,0,0,0,0.21
2013-8-1,78,68,60,71,65,60,99,92,75,30.05,29.85,0,0,0,57.66
2013-8-2,83,73,66,73,67,64,99,83,56,29.89,29.77,0,0,0,29.86
2013-8-3,77,68,63,70,65,61,98,91,72,29.89,29.82,0,0,0,29.80
2013-8-4,81,68,56,64,60,55,99,76,47,29.93,29.80,0,-4,0,129.98
2013-8-5,78,66,54,57,54,48,95,69,38,30.04,29.92,0,0,0,3.38
2013-8-6,80,66,51,65,58,50,98,77,49,30.14,30.04,0,0,0,19.21
2013-8-7,79,68,54,67,61,53,99,81,53,30.18,30.09,0,0,0,29.68
2013-8-8,79,72,68,74,70,66,98,92,81,30.09,30.02,0,-4,0,47.07
2013-8-9,76,73,71,75,72,70,99,98,96,30.04,29.79,0,0,0,29.80
2013-8-10,84,74,65,72,66,56,99,79,52,30.04,29.82,0,0,0,29.85
2013-8-11,79,68,54,62,57,51,94,70,46,30.11,30.02,0,0,0,18.18
2013-8-12,83,71,60,68,63,59,98,80,49,30.04,29.93,0,-4,0,0.00
2013-8-13,76,68,62,71,66,61,99,95,76,29.94,29.69,0,-4,0,29.85
2013-8-14,76,66,59,65,56,53,98,72,49,30.01,29.71,0,0,0,29.09
2013-8-15,77,66,52,59,55,49,96,71,40,30.14,30.01,0,-4,0,0.05
2013-8-16,81,67,52,64,56,51,99,72,40,30.21,30.12,0,0,0,0.29
2013-8-17,84,68,53,64,58,52,99,74,36,30.27,30.21,0,0,0,4.58
2013-8-18,77,66,58,66,61,57,98,85,56,30.27,30.12,0,0,0,46.09
2013-8-19,81,68,56,70,62,55,99,82,57,30.12,30.00,0,0,0,46.09
2013-8-20,87,72,59,68,63,58,99,76,43,30.12,30.02,0,0,0,40.50
2013-8-21,88,74,59,71,64,58,99,75,46,30.16,30.05,0,0,0,23.79
2013-8-22,77,70,64,73,68,62,100,96,86,30.06,29.86,0,-4,0,28.78
2013-8-23,81,71,61,68,64,59,99,80,50,30.11,29.84,0,-7,0,29.60
2013-8-24,80,67,56,63,57,52,95,73,46,30.35,30.11,0,0,0,2.75
2013-8-25,83,68,51,65,57,48,99,73,31,30.38,30.21,0,0,0,17.96
2013-8-26,78,70,64,68,64,60,98,83,67,30.22,29.91,0,0,0,29.18
2013-8-27,85,74,68,75,70,67,99,90,66,29.91,29.80,0,0,0,48.91
2013-8-28,87,74,67,76,70,66,100,89,64,29.90,29.83,0,0,0,29.86
2013-8-29,76,70,65,69,66,62,98,89,73,30.04,29.90,0,0,0,40.97
2013-8-30,82,69,61,74,66,60,97,90,68,30.04,29.86,0,0,0,40.97
2013-8-31,81,74,67,75,71,66,99,92,78,29.86,29.80,0,0,0,29.81
2013-9-1,82,75,70,76,73,69,99,93,79,29.86,29.81,0,0,0,42.65
2013-9-2,78,74,70,75,73,70,100,97,92,29.83,29.69,0,0,0,36.04
2013-9-3,78,72,63,75,70,60,100,94,76,29.86,29.70,0,-4,0,36.78
2013-9-4,79,67,56,66,60,55,99,80,49,29.96,29.85,0,-4,0,31.08
2013-9-5,77,63,52,65,55,47,99,77,44,30.14,29.90,0,0,0,29.96
2013-9-6,72,58,48,53,49,45,94,73,43,30.25,30.13,0,0,0,17.44
2013-9-7,77,61,44,60,53,44,99,76,39,30.13,29.89,0,0,0,26.14
2013-9-8,78,67,50,66,58,46,95,75,44,30.09,29.79,0,0,0,29.39
2013-9-9,71,58,43,55,49,42,97,75,44,30.25,30.09,0,-4,0,29.32
2013-9-10,78,68,56,73,66,54,99,93,81,30.18,30.05,0,-7,0,29.95
2013-9-11,92,77,66,82,72,66,100,87,65,30.11,29.99,0,0,0,47.62
2013-9-12,86,74,67,77,71,67,99,90,70,29.99,29.68,0,0,0,29.94
2013-9-13,78,68,58,70,64,54,100,90,69,29.79,29.61,0,0,0,47.60
2013-9-14,69,58,49,58,52,47,95,81,58,30.10,29.79,0,0,0,29.87
2013-9-15,69,56,45,56,50,44,98,81,50,30.20,30.08,0,-4,0,40.24
2013-9-16,71,59,51,60,53,38,99,83,55,30.23,30.04,0,0,0,29.10
2013-9-17,65,52,41,47,42,37,95,70,46,30.43,30.23,0,0,0,29.99
2013-9-18,72,54,38,54,46,38,99,79,45,30.35,30.18,0,-4,0,28.66
2013-9-19,77,58,43,61,51,42,99,81,43,30.19,30.07,0,-4,0,29.94
2013-9-20,80,61,45,64,54,44,99,82,45,30.10,30.01,0,0,0,28.96
2013-9-21,77,63,50,70,60,49,99,91,74,30.04,29.71,0,-4,0,28.80
2013-9-22,72,63,52,68,57,43,99,81,55,29.88,29.64,0,-4,0,29.98
2013-9-23,66,54,44,49,44,42,92,73,51,29.98,29.87,0,0,0,54.15
2013-9-24,50,48,48,46,45,45,90,88,83,29.94,29.93,0,-91,0,0.00
2013-9-25,74,57,43,59,50,42,99,81,47,29.95,29.86,0,0,0,13.70
2013-9-26,70,59,48,56,52,46,95,82,55,30.11,29.96,0,0,0,17.38
2013-9-27,65,55,47,55,51,46,97,87,64,30.28,30.11,0,0,0,29.85
2013-9-28,77,59,48,61,53,47,98,84,50,30.34,30.25,0,0,0,29.23
2013-9-29,73,57,48,59,51,47,99,84,44,30.25,30.10,0,-4,0,23.25
2013-9-30,75,57,47,58,51,46,99,84,47,30.10,29.97,0,-4,0,29.64
2013-10-1,80,61,45,64,54,45,99,82,47,29.99,29.87,0,-4,0,29.97
2013-10-2,83,65,50,68,58,50,99,83,50,30.00,29.88,0,-4,0,29.84
2013-10-3,78,63,48,60,54,47,98,78,36,30.11,29.99,0,0,0,29.11
2013-10-4,81,64,54,70,60,52,99,88,66,30.08,29.98,0,0,0,29.03
2013-10-5,78,65,59,68,61,57,96,88,68,30.10,30.03,0,-4,0,29.54
2013-10-6,61,60,60,60,60,59,99,98,98,30.12,30.07,0,0,0,231.79
2013-10-7,75,67,60,72,66,56,100,95,86,30.07,29.82,0,0,0,43.82
2013-10-8,68,57,48,56,48,43,94,75,46,30.35,29.94,0,-7,0,29.50
2013-10-9,66,53,44,52,46,41,94,78,53,30.43,30.33,0,0,0,51.20
2013-10-10,61,54,46,55,50,44,95,88,80,30.33,30.12,0,0,0,28.96
2013-10-11,69,60,53,61,55,49,95,85,73,30.12,30.05,0,0,0,28.85
2013-10-12,75,60,50,61,51,45,89,74,51,30.34,30.11,0,0,0,29.50
2013-10-13,64,54,46,53,49,44,97,85,66,30.41,30.32,0,0,0,29.92
2013-10-14,67,50,40,53,46,39,99,86,55,30.40,30.27,0,-4,0,29.98
2013-10-15,73,54,42,56,47,41,99,80,41,30.28,30.15,0,0,0,29.79
2013-10-16,70,57,46,59,52,44,97,84,64,30.15,29.93,0,-4,0,75.65
2013-10-17,72,62,56,64,60,54,97,91,71,29.93,29.72,0,-7,0,42.85
2013-10-18,69,61,50,62,52,42,98,72,46,29.95,29.65,0,0,0,49.95
2013-10-19,66,52,38,54,46,37,99,80,55,30.00,29.75,0,0,0,29.53
2013-10-20,65,54,40,57,43,37,93,69,37,30.06,29.73,0,-7,0,55.45
2013-10-21,68,50,34,49,41,33,99,74,38,30.16,30.00,0,0,0,29.94
2013-10-22,69,55,44,54,48,42,98,79,52,30.00,29.72,0,0,0,53.72
2013-10-23,49,44,34,42,38,33,97,80,62,29.82,29.62,0,0,0,36.49
2013-10-24,55,44,31,38,32,28,97,67,38,29.96,29.72,0,-4,0,29.34
2013-10-25,50,41,31,34,31,28,92,67,46,30.22,29.96,0,0,0,0.01
2013-10-26,55,43,27,40,32,26,98,70,40,30.21,29.90,0,-10,0,29.89
2013-10-27,59,49,34,38,34,30,85,57,37,30.11,29.85,0,0,0,29.35
2013-10-28,62,45,27,40,33,26,97,68,37,30.35,30.11,0,-4,0,18.77
2013-10-29,56,42,33,34,31,28,89,65,38,30.44,30.35,0,-14,0,0.00
2013-10-30,57,46,33,49,40,30,95,81,64,30.38,30.21,0,-4,0,0.00
2013-10-31,64,52,39,60,51,38,99,95,86,30.25,29.83,0,-7,0,29.21
2013-11-1,66,62,56,62,59,54,98,90,77,29.84,29.55,0,0,0,29.83
2013-11-2,70,56,46,56,47,41,95,75,45,29.77,29.61,0,0,0,31.87
2013-11-3,51,44,33,46,33,18,87,67,48,30.44,29.76,0,0,0,44.24
2013-11-4,49,36,28,24,20,17,73,55,29,30.70,30.44,0,-4,0,29.37
2013-11-5,55,42,31,40,33,24,90,73,56,30.71,30.52,0,-4,0,28.89
2013-11-6,62,50,37,54,45,35,98,84,57,30.53,30.09,0,0,0,0.01
2013-11-7,62,53,40,60,51,35,98,93,80,30.09,29.73,0,-4,0,32.39
2013-11-8,50,42,34,35,32,28,92,69,44,30.18,29.89,0,-11,0,29.80
2013-11-9,48,40,26,37,31,24,95,72,47,30.29,30.03,0,-7,0,29.31
2013-11-10,60,49,45,44,38,32,79,67,43,30.03,29.76,0,0,0,9.32
2013-11-11,52,46,35,38,33,28,76,59,44,30.17,29.95,0,-4,0,29.11
2013-11-12,51,36,26,39,26,18,93,70,57,30.25,29.91,0,-7,0,0.67
2013-11-13,39,30,23,20,17,13,78,58,39,30.35,30.25,0,0,0,11.52
2013-11-14,52,41,30,30,23,18,69,50,30,30.25,30.11,0,-7,0,21.21
2013-11-15,57,41,29,39,30,18,96,67,28,30.26,30.17,0,-7,0,0.00
2013-11-16,61,44,31,45,38,29,97,82,46,30.33,30.24,0,-7,0,25.36
2013-11-17,59,52,36,58,51,34,99,96,89,30.31,29.84,0,0,0,0.46
2013-11-18,65,57,50,60,47,28,100,72,42,29.84,29.59,0,0,0,29.70
2013-11-19,50,41,32,31,26,21,65,55,42,30.33,29.72,0,0,0,0.97
2013-11-20,43,32,25,21,18,15,72,57,35,30.64,30.32,0,-4,0,0.01
2013-11-21,50,36,23,37,27,15,84,69,38,30.66,30.41,0,-7,0,0.00
2013-11-22,52,46,41,50,45,37,98,94,83,30.41,29.86,0,-4,0,27.41
2013-11-23,50,42,30,48,28,14,97,61,31,29.99,29.86,0,-7,0,99.22
2013-11-24,30,25,21,14,6,0,63,46,31,30.32,29.92,0,-14,0,0.00
2013-11-25,36,27,16,22,15,8,75,60,41,30.46,30.32,0,-10,0,0.00
2013-11-26,48,37,33,47,29,19,98,72,55,30.36,29.92,0,-4,0,0.00
2013-11-27,60,49,37,60,48,31,99,96,78,29.92,29.28,0,0,0,15.79
2013-11-28,37,30,24,33,19,12,85,62,40,30.49,29.63,0,-7,0,29.76
2013-11-29,39,29,24,23,20,15,90,69,49,30.75,30.48,0,-4,0,29.98
2013-11-30,36,27,17,31,17,10,85,68,37,30.80,30.41,0,-4,0,0.00
2013-12-1,49,38,33,45,36,31,97,92,79,30.41,30.02,0,0,0,19.87
2013-12-2,46,37,31,41,35,30,98,94,77,30.02,29.91,0,0,0,29.78
2013-12-3,49,37,32,40,34,31,99,89,66,30.01,29.88,0,-7,0,29.00
2013-12-4,52,37,27,38,32,26,97,85,57,30.19,30.01,0,-4,0,29.43
2013-12-5,56,50,37,55,49,35,99,96,91,30.19,29.96,0,0,0,29.93
2013-12-6,55,46,36,55,44,35,100,94,85,30.16,29.90,0,0,0,29.64
2013-12-7,40,34,29,35,29,19,97,80,62,30.52,30.09,0,-7,0,29.82
2013-12-8,32,29,21,25,21,18,91,73,64,30.62,30.45,0,-10,0,28.94
2013-12-9,36,32,27,36,31,25,99,97,90,30.45,29.94,0,-4,0,28.86
2013-12-10,33,30,24,33,29,22,99,97,92,30.09,29.82,0,-10,0,16.96
2013-12-11,33,27,22,24,20,18,94,75,61,30.31,30.09,0,0,0,29.23
2013-12-12,27,21,11,19,12,8,88,70,47,30.34,30.14,0,-10,0,0.00
2013-12-13,33,26,18,18,14,8,76,61,49,30.37,30.09,0,-4,0,19.58
2013-12-14,28,20,16,27,16,12,96,84,65,30.56,29.97,0,-10,0,0.00
2013-12-15,34,31,26,33,29,24,97,94,88,29.98,29.46,0,-4,0,0.06
2013-12-16,30,25,11,25,16,8,90,69,48,30.25,29.81,0,-4,0,0.31
2013-12-17,24,16,8,22,14,6,94,90,83,30.27,29.94,0,-10,0,0.00
2013-12-18,35,26,16,25,20,13,93,80,62,30.16,29.92,0,-10,0,1.81
2013-12-19,43,32,21,33,26,18,90,79,57,30.18,30.01,0,-10,0,6.44
2013-12-20,50,37,30,40,33,28,95,84,60,30.13,29.99,0,0,0,18.02
2013-12-21,56,44,34,49,42,33,99,93,76,30.03,29.92,0,-7,0,4.14
2013-12-22,61,55,41,56,53,40,99,94,82,29.99,29.82,0,0,0,0.04
2013-12-23,55,49,39,54,48,35,99,97,86,30.11,29.87,0,-4,0,0.04
2013-12-24,39,34,26,35,24,14,86,67,49,30.29,30.06,0,0,0,15.57
2013-12-25,27,22,17,15,10,6,73,58,42,30.54,30.29,0,-7,0,0.14
2013-12-26,36,28,22,27,22,15,93,80,69,30.47,30.14,0,0,0,0.01
2013-12-27,38,28,17,25,21,15,96,77,52,30.35,30.25,0,-4,0,0.60
2013-12-28,48,35,22,33,26,20,96,74,47,30.29,30.06,0,-7,0,12.90
2013-12-29,41,34,29,40,32,26,97,91,87,30.08,29.40,0,-43,0,0.00
2014-1-1,68,29,25,38,16,7,73,58,16,30.37,30.31,0,-37,0,0.00
2014-1-2,27,21,11,23,17,8,94,86,69,30.32,29.71,0,-20,0,0.00